Time,TemperatureF,DewpointF,PressureIn,WindDirection,WindDirectionDegrees,WindSpeedMPH,WindSpeedGustMPH,Humidity,HourlyPrecipIn,Conditions,Clouds,dailyrainin,SoftwareType,DateUTC
2013-01-06 13:12:00,40.0,34.0,29.98,South,188,9.0,19.0,78,0.00,,,0.04,,2013-01-06 21:12:00,
2013-01-06 13:32:00,40.0,34.0,29.96,South,178,8.0,23.0,79,0.00,,,0.04,,2013-01-06 21:32:00,
2013-01-06 13:42:00,40.0,34.0,29.96,South,178,8.0,23.0,79,0.00,,,0.04,,2013-01-06 21:42:00,
2013-01-06 13:52:00,41.0,35.0,29.95,South,169,8.0,21.0,79,0.00,,,0.04,,2013-01-06 21:52:00,
2013-01-06 14:01:00,39.0,34.0,29.95,South,185,10.0,19.0,81,0.01,,,0.05,,2013-01-06 22:01:00,
2013-01-06 14:12:00,39.0,34.0,29.95,South,185,10.0,19.0,81,0.01,,,0.05,,2013-01-06 22:12:00,
2013-01-06 14:22:00,39.0,35.0,29.93,South,190,7.0,11.0,84,0.03,,,0.07,,2013-01-06 22:22:00,
2013-01-06 14:32:00,38.0,34.0,29.93,SW,219,10.0,18.0,86,0.04,,,0.08,,2013-01-06 22:32:00,
2013-01-06 14:42:00,38.0,34.0,29.93,SW,219,10.0,18.0,86,0.04,,,0.08,,2013-01-06 22:42:00,
2013-01-06 14:52:00,38.0,34.0,29.93,SSW,192,9.0,19.0,87,0.04,,,0.08,,2013-01-06 22:52:00,
2013-01-06 15:02:00,38.0,34.0,29.93,WSW,237,9.0,17.0,87,0.03,,,0.08,,2013-01-06 23:02:00,
2013-01-06 15:12:00,38.0,34.0,29.93,WSW,237,9.0,17.0,87,0.03,,,0.08,,2013-01-06 23:12:00,
2013-01-06 15:22:00,38.0,35.0,29.93,SW,218,9.0,17.0,88,0.01,,,0.08,,2013-01-06 23:22:00,
2013-01-06 15:32:00,38.0,35.0,29.94,South,172,9.0,15.0,88,0.01,,,0.09,,2013-01-06 23:32:00,
2013-01-06 15:42:00,38.0,35.0,29.94,South,172,9.0,15.0,88,0.01,,,0.09,,2013-01-06 23:42:00,
2013-01-06 15:53:00,39.0,36.0,29.93,SW,226,7.0,12.0,88,0.01,,,0.09,,2013-01-06 23:53:00,
2013-01-06 16:02:00,39.0,36.0,29.96,South,191,2.0,11.0,88,0.01,,,0.09,,2013-01-07 00:02:00,
2013-01-06 16:11:00,39.0,36.0,29.96,South,191,2.0,11.0,88,0.01,,,0.09,,2013-01-07 00:11:00,
2013-01-06 16:22:00,39.0,35.0,29.96,SSW,192,5.0,10.0,87,0.02,,,0.10,,2013-01-07 00:22:00,
2013-01-06 16:32:00,38.0,34.0,29.96,WSW,237,7.0,11.0,87,0.01,,,0.10,,2013-01-07 00:32:00,
2013-01-06 16:42:00,38.0,34.0,29.96,WSW,237,7.0,11.0,87,0.01,,,0.10,,2013-01-07 00:42:00,
2013-01-06 16:53:00,38.0,35.0,29.95,SSE,159,5.0,11.0,88,0.01,,,0.10,,2013-01-07 00:53:00,
2013-01-06 17:02:00,37.0,34.0,29.94,ESE,120,4.0,10.0,88,0.02,,,0.11,,2013-01-07 01:02:00,
2013-01-06 17:11:00,37.0,34.0,29.94,ESE,120,4.0,10.0,88,0.02,,,0.11,,2013-01-07 01:11:00,
2013-01-06 17:22:00,37.0,34.0,29.93,WSW,249,2.0,8.0,89,0.01,,,0.11,,2013-01-07 01:22:00,
2013-01-06 17:32:00,37.0,34.0,29.92,SW,214,4.0,9.0,89,0.01,,,0.11,,2013-01-07 01:32:00,
2013-01-06 17:42:00,37.0,34.0,29.92,SW,214,4.0,9.0,89,0.01,,,0.11,,2013-01-07 01:42:00,
2013-01-06 17:52:00,37.0,34.0,29.93,WNW,288,2.0,6.0,90,0.01,,,0.11,,2013-01-07 01:52:00,
2013-01-06 18:01:00,37.0,34.0,29.93,NE,46,2.0,7.0,90,0.00,,,0.11,,2013-01-07 02:01:00,
2013-01-06 18:11:00,37.0,34.0,29.93,NE,46,2.0,7.0,90,0.00,,,0.11,,2013-01-07 02:11:00,
2013-01-06 18:22:00,36.0,33.0,29.93,ENE,78,1.0,3.0,90,0.00,,,0.11,,2013-01-07 02:22:00,
2013-01-06 18:32:00,36.0,33.0,29.93,SE,132,3.0,5.0,90,0.00,,,0.11,,2013-01-07 02:32:00,
2013-01-06 18:42:00,36.0,33.0,29.93,SE,132,3.0,5.0,90,0.00,,,0.11,,2013-01-07 02:42:00,
2013-01-06 18:53:00,37.0,34.0,29.93,West,269,4.0,12.0,89,0.00,,,0.11,,2013-01-07 02:53:00,
2013-01-06 19:02:00,37.0,34.0,29.93,West,273,5.0,11.0,87,0.00,,,0.11,,2013-01-07 03:02:00,
2013-01-06 19:11:00,37.0,34.0,29.93,West,273,5.0,11.0,87,0.00,,,0.11,,2013-01-07 03:11:00,
2013-01-06 19:22:00,37.0,33.0,29.93,West,267,12.0,17.0,86,0.00,,,0.11,,2013-01-07 03:22:00,
2013-01-06 19:32:00,37.0,33.0,29.93,West,272,12.0,17.0,84,0.00,,,0.11,,2013-01-07 03:32:00,
2013-01-06 19:42:00,37.0,33.0,29.93,West,272,12.0,17.0,84,0.00,,,0.11,,2013-01-07 03:42:00,
2013-01-06 19:52:00,37.0,33.0,29.92,West,259,7.0,15.0,84,0.00,,,0.11,,2013-01-07 03:52:00,
2013-01-06 20:02:00,37.0,32.0,29.92,WSW,257,9.0,13.0,83,0.00,,,0.11,,2013-01-07 04:02:00,
2013-01-06 20:12:00,37.0,32.0,29.92,WSW,257,9.0,13.0,83,0.00,,,0.11,,2013-01-07 04:12:00,
2013-01-06 20:22:00,37.0,32.0,29.93,West,272,8.0,13.0,83,0.00,,,0.11,,2013-01-07 04:22:00,
2013-01-06 20:32:00,36.0,31.0,29.93,West,274,7.0,11.0,82,0.00,,,0.11,,2013-01-07 04:32:00,
2013-01-06 20:42:00,36.0,31.0,29.93,West,274,7.0,11.0,82,0.00,,,0.11,,2013-01-07 04:42:00,
2013-01-06 20:52:00,36.0,31.0,29.93,West,277,7.0,13.0,83,0.00,,,0.11,,2013-01-07 04:52:00,
2013-01-06 21:02:00,36.0,31.0,29.93,West,263,5.0,12.0,83,0.00,,,0.11,,2013-01-07 05:02:00,
2013-01-06 21:12:00,36.0,31.0,29.93,West,263,5.0,12.0,83,0.00,,,0.11,,2013-01-07 05:12:00,
2013-01-06 21:22:00,36.0,32.0,29.93,West,278,7.0,12.0,84,0.00,,,0.11,,2013-01-07 05:22:00,
2013-01-06 21:32:00,35.0,31.0,29.93,WNW,290,5.0,10.0,84,0.00,,,0.11,,2013-01-07 05:32:00,
2013-01-06 21:42:00,35.0,31.0,29.93,WNW,290,5.0,10.0,84,0.00,,,0.11,,2013-01-07 05:42:00,
2013-01-06 21:52:00,35.0,31.0,29.93,NW,304,8.0,13.0,85,0.00,,,0.11,,2013-01-07 05:52:00,
2013-01-06 22:02:00,36.0,32.0,29.93,NW,304,11.0,17.0,84,0.00,,,0.11,,2013-01-07 06:02:00,
2013-01-06 22:12:00,36.0,32.0,29.93,NW,304,11.0,17.0,84,0.00,,,0.11,,2013-01-07 06:12:00,
2013-01-06 22:22:00,36.0,32.0,29.93,WNW,298,12.0,17.0,84,0.00,,,0.11,,2013-01-07 06:22:00,
2013-01-06 22:32:00,36.0,32.0,29.93,NW,304,8.0,16.0,84,0.00,,,0.11,,2013-01-07 06:32:00,
2013-01-06 22:42:00,36.0,32.0,29.93,NW,304,8.0,16.0,84,0.00,,,0.11,,2013-01-07 06:42:00,
2013-01-06 22:52:00,36.0,32.0,29.95,WNW,290,7.0,17.0,84,0.00,,,0.11,,2013-01-07 06:52:00,
2013-01-06 23:02:00,37.0,32.0,29.96,NW,306,10.0,13.0,82,0.00,,,0.11,,2013-01-07 07:02:00,
2013-01-06 23:11:00,37.0,32.0,29.96,NW,306,10.0,13.0,82,0.00,,,0.11,,2013-01-07 07:11:00,
2013-01-06 23:22:00,37.0,31.0,29.96,NW,309,11.0,18.0,79,0.00,,,0.11,,2013-01-07 07:22:00,
2013-01-06 23:32:00,37.0,31.0,29.96,North,350,6.0,15.0,78,0.00,,,0.11,,2013-01-07 07:32:00,
2013-01-06 23:42:00,37.0,31.0,29.96,North,350,6.0,15.0,78,0.00,,,0.11,,2013-01-07 07:42:00,
2013-01-06 23:52:00,37.0,30.0,29.96,NNW,336,7.0,13.0,77,0.00,,,0.11,,2013-01-07 07:52:00,